Weather History for CWEU - October, 2013

Change the Weather History Date:

Sunday, October 13, 2013

  Actual Average Record
Temperature  
Mean Temperature -18 °F -  
Max Temperature -15 °F -9 °F 20 °F (2014)
Min Temperature -21 °F -22 °F -22 °F (2004)
Degree Days  
Heating Degree Days 83    
Moisture  
Dew Point -27 °F    
Average Humidity 63    
Maximum Humidity 70    
Minimum Humidity 47    
Precipitation  
Precipitation 0.00 in 0.01 in - ()
Sea Level Pressure  
Sea Level Pressure 30.24 in    
Wind  
Wind Speed 0 mph ()    
Max Wind Speed 2 mph    
Max Gust Speed -    
Visibility 15.0 miles    
Events      
Averages and records for this station are not official NWS values.
T = Trace of Precipitation, MM = Missing Value Source: Averaged Metar Reports

Daily Weather History Graph

Daily Weather History Graph

Search for Another Location

Airport or City:

Trip Planner

Search our weather history database for the weather conditions in past years. The results will help you decide how hot, cold, wet, or windy it might be!

Date:

Astronomy

Oct. 13, 2013 Rise Set
Actual Time 9:30 AM CDT 3:26 PM CDT
Civil Twilight 7:12 AM CDT 5:43 PM CDT
Nautical Twilight 4:50 AM CDT 8:03 PM CDT
Astronomical Twilight 1:02 AM CDT 11:43 PM CDT
Moon No Moon Rise No Moon Set
Length of Visible Light 10h 31m
Length of Day
5h 55m
Waxing Gibbous, 69% of the Moon is Illuminated
Oct 13
Waxing Gibbous
Oct 18
Full
Oct 26
Last Quarter
Nov 3
New
Nov 9
First Quarter

Hourly Weather History & Observations

Time (CDT) Temp. Dew Point Humidity Pressure Visibility Wind Dir Wind Speed Gust Speed Precip Events Conditions
12:00 AM -20.2 °F -29.2 °F 63% 30.18 in 15.0 mi Calm Calm - N/A   Clear
1:00 AM -20 °F -29 °F 47% 30.19 in 15 mi Calm Calm - -  
1:00 AM -20.2 °F -29.2 °F 63% 30.19 in 15.0 mi Calm Calm - N/A   Clear
2:00 AM -18.4 °F -25.6 °F 70% 30.19 in 15.0 mi Calm Calm - N/A   Clear
3:00 AM -20.2 °F -29.2 °F 63% 30.20 in 15.0 mi Calm Calm - N/A   Clear
4:00 AM -20.2 °F -29.2 °F 63% 30.20 in 15.0 mi Calm Calm - N/A   Clear
5:00 AM -20.2 °F -29.2 °F 63% 30.22 in 15.0 mi ESE 2.3 mph - N/A   Clear
6:00 AM -14.8 °F -23.8 °F 64% 30.21 in 15.0 mi Calm Calm - N/A   Clear
7:00 AM -19 °F -28 °F 47% 30.22 in 15 mi Calm Calm - -  
7:00 AM -18.4 °F -27.4 °F 63% 30.22 in 15.0 mi Calm Calm - N/A   Clear
8:00 AM -16.6 °F -23.8 °F 70% 30.23 in 15.0 mi Calm Calm - N/A   Clear
9:00 AM -18.4 °F -27.4 °F 63% 30.23 in 15.0 mi Calm Calm - N/A   Clear
10:00 AM -18.4 °F -27.4 °F 63% 30.23 in 15.0 mi Calm Calm - N/A   Clear
11:00 AM -14.8 °F -23.8 °F 64% 30.23 in 15.0 mi Calm Calm - N/A   Clear
12:00 PM -16.6 °F -25.6 °F 64% 30.24 in 15.0 mi Calm Calm - N/A   Clear
1:00 PM -18 °F -26 °F 49% 30.25 in 15 mi Calm Calm - -  
1:00 PM -18.4 °F -25.6 °F 70% 30.25 in 15.0 mi Calm Calm - N/A   Clear
2:00 PM -18.4 °F -27.4 °F 63% 30.25 in 15.0 mi Calm Calm - N/A   Clear
3:00 PM -18.4 °F -25.6 °F 70% 30.26 in 15.0 mi Calm Calm - N/A   Clear
4:00 PM -18.4 °F -27.4 °F 63% 30.27 in 15.0 mi Calm Calm - N/A   Clear
5:00 PM -18.4 °F -27.4 °F 63% 30.27 in 15.0 mi Calm Calm - N/A   Partly Cloudy
6:00 PM -18.4 °F -27.4 °F 63% 30.28 in 15.0 mi Calm Calm - N/A   Partly Cloudy
7:00 PM -18 °F -26 °F 50% 30.28 in 15 mi Calm Calm - -  
7:00 PM -18.4 °F -25.6 °F 70% 30.28 in 15.0 mi Calm Calm - N/A   Clear
7:31 PM - - N/A% - 15.0 mi Calm Calm - N/A   Clear
8:00 PM -16.6 °F -23.8 °F 70% 30.28 in 15.0 mi Calm Calm - N/A   Clear
9:00 PM -18.4 °F -27.4 °F 63% 30.28 in 15.0 mi Calm Calm - N/A   Clear
10:00 PM -18.4 °F -27.4 °F 63% 30.28 in 15.0 mi SE 2.3 mph - N/A   Clear
11:00 PM -16.6 °F -25.6 °F 64% 30.28 in 15.0 mi Calm Calm - N/A   Clear